Torna al catalogo

COSMOS 2417

GLONASS

AttivoNavigazioneMEO
NORAD 28917·PAYLOAD·🇷🇺 Russia

Lanciato Dec 25, 2005 da Baikonur Cosmodrome

Loading…

Prossimi Passaggi (prossime 24 ore)

TLE

AggiornatoSource: Space-Track

Epoca: Sep 9, 2026, 12:59 UTC

1 28917U 05050C   26252.54111478 -.00000033  00000-0  00000-0 0  9992
2 28917  65.5213 313.2954 0014615  97.7497 261.6515  2.13104580161028

Traccia COSMOS 2417 in tempo reale con AllMySat

Download on the App Store